Lake Perris Weather Center

Moon Phase Calendar



Lake Perris Water Level
Online Cameras

 


      

Current Conditions in Lakeview
4/21/2021 3:45:30 PM

61°F
Feels Like 59
Clouds
Humidity
55%
Pressure
29.85"
Wind
5.8 mph (S)
Dew Point
45°F
UV Index
2/10 (Low)
Visibility
6 mi

Hourly Forecast

Date & Time Wed, Apr 21
3:00 PM
Wed, Apr 21
4:00 PM
Wed, Apr 21
5:00 PM
Wed, Apr 21
6:00 PM
Wed, Apr 21
7:00 PM
Wed, Apr 21
8:00 PM
Wed, Apr 21
9:00 PM
Wed, Apr 21
10:00 PM
Wed, Apr 21
11:00 PM
Thu, Apr 22
12:00 AM
Thu, Apr 22
1:00 AM
Thu, Apr 22
2:00 AM
Thu, Apr 22
3:00 AM
Thu, Apr 22
4:00 AM
Thu, Apr 22
5:00 AM
Thu, Apr 22
6:00 AM
Thu, Apr 22
7:00 AM
Thu, Apr 22
8:00 AM
Thu, Apr 22
9:00 AM
Thu, Apr 22
10:00 AM
Thu, Apr 22
11:00 AM
Thu, Apr 22
12:00 PM
Thu, Apr 22
1:00 PM
Thu, Apr 22
2:00 PM
Thu, Apr 22
3:00 PM
Thu, Apr 22
4:00 PM
Thu, Apr 22
5:00 PM
Thu, Apr 22
6:00 PM
Thu, Apr 22
7:00 PM
Thu, Apr 22
8:00 PM
Thu, Apr 22
9:00 PM
Thu, Apr 22
10:00 PM
Thu, Apr 22
11:00 PM
Fri, Apr 23
12:00 AM
Fri, Apr 23
1:00 AM
Fri, Apr 23
2:00 AM
Fri, Apr 23
3:00 AM
Fri, Apr 23
4:00 AM
Fri, Apr 23
5:00 AM
Fri, Apr 23
6:00 AM
Fri, Apr 23
7:00 AM
Fri, Apr 23
8:00 AM
Fri, Apr 23
9:00 AM
Fri, Apr 23
10:00 AM
Fri, Apr 23
11:00 AM
Fri, Apr 23
12:00 PM
Fri, Apr 23
1:00 PM
Fri, Apr 23
2:00 PM
Condition
Clouds

Clouds

Clouds

Clouds

Clouds

Clouds

Clouds

Clouds

Clouds

Clouds

Clouds

Clouds

Clouds

Clouds

Clouds

Clouds

Clouds

Clouds

Clouds

Clouds

Clouds

Clouds

Clouds

Clouds

Clouds

Clouds

Clouds

Clouds

Clouds

Clouds

Clouds

Clouds

Clouds

Clouds

Clouds

Clouds

Clouds

Clouds

Clouds

Clouds

Clouds

Clouds

Clouds

Clouds

Clouds

Clear

Clear

Clear
Temperature 61°F61°F60°F59°F57°F55°F53°F52°F52°F51°F51°F50°F50°F51°F50°F50°F51°F52°F53°F55°F58°F60°F63°F65°F65°F64°F63°F61°F58°F55°F52°F52°F51°F51°F51°F51°F51°F51°F51°F50°F51°F53°F55°F58°F62°F66°F69°F71°F
Feels Like 59°F59°F58°F57°F55°F53°F51°F50°F50°F50°F49°F49°F49°F49°F49°F49°F49°F50°F52°F54°F56°F58°F61°F63°F64°F63°F62°F60°F57°F54°F51°F50°F49°F49°F50°F50°F50°F50°F50°F49°F50°F51°F53°F56°F60°F64°F67°F69°F
Cloudiness 88%90%89%94%95%96%98%99%99%99%99%98%97%97%98%98%99%99%99%98%98%76%58%46%40%38%38%56%64%62%56%55%57%80%88%92%94%95%96%96%94%94%92%86%73%3%3%3%
Visibility 6 mi6 mi6 mi6 mi6 mi6 mi6 mi6 mi6 mi6 mi6 mi6 mi6 mi6 mi6 mi6 mi6 mi6 mi6 mi6 mi6 mi6 mi6 mi6 mi6 mi6 mi6 mi6 mi6 mi6 mi6 mi6 mi6 mi6 mi6 mi6 mi6 mi6 mi6 mi6 mi6 mi6 mi6 mi6 mi6 mi6 mi6 mi6 mi
Precipitation 0%0%0%0%0%0%0%0%2%2%0%0%0%0%0%2%0%0%0%0%0%0%0%0%0%4%4%0%0%0%0%0%0%0%0%0%0%0%0%0%0%0%0%0%0%0%0%0%
Humidity 56%55%57%60%64%68%73%75%76%78%80%81%80%80%80%81%80%76%71%64%58%53%49%46%47%49%52%56%62%70%79%82%84%84%83%83%82%81%81%82%80%75%67%58%50%43%38%35%
Dew Point 45°F45°F45°F45°F45°F44°F43°F43°F44°F44°F44°F44°F44°F44°F44°F44°F44°F44°F43°F43°F43°F42°F43°F43°F44°F44°F45°F45°F45°F45°F45°F45°F45°F45°F45°F45°F45°F45°F45°F44°F44°F44°F43°F43°F43°F42°F42°F41°F
Pressure 29.85"29.85"29.85"29.85"29.85"29.85"29.88"29.91"29.91"29.91"29.91"29.91"29.91"29.91"29.91"29.91"29.94"29.94"29.97"29.94"29.94"29.94"29.91"29.88"29.88"29.85"29.85"29.88"29.88"29.91"29.94"29.97"29.97"29.97"29.97"29.97"30"30"29.97"30"30"30"30"30"30"29.97"29.94"29.94"
Wind Speed 9.7 mph10.2 mph8 mph6.8 mph6.4 mph5.6 mph4.7 mph5.1 mph5.8 mph5.3 mph3.8 mph2.9 mph2 mph2.4 mph2.1 mph2.3 mph2.4 mph2.7 mph2.2 mph2.3 mph3.6 mph4.5 mph6 mph7.3 mph8 mph8.6 mph8.9 mph9 mph7.4 mph5.3 mph4.2 mph3.4 mph3.2 mph2.9 mph2.9 mph2.5 mph2.9 mph2.4 mph2.6 mph2.9 mph2.6 mph2 mph1.6 mph3.6 mph3.6 mph4.1 mph4.8 mph5.7 mph
Wind
Direction
179°
S
190°
S
206°
SSW
214°
SW
220°
SW
214°
SW
201°
SSW
188°
S
187°
S
182°
S
178°
S
167°
SSE
158°
SSE
187°
S
158°
SSE
152°
SSE
164°
SSE
171°
S
190°
S
229°
SW
244°
WSW
232°
SW
226°
SW
228°
SW
231°
SW
238°
WSW
242°
WSW
247°
WSW
242°
WSW
237°
WSW
231°
SW
221°
SW
220°
SW
219°
SW
223°
SW
219°
SW
212°
SSW
191°
S
173°
S
183°
S
187°
S
191°
S
236°
SW
251°
WSW
255°
WSW
251°
WSW
253°
WSW
248°
WSW

Daily Forecast

Date High Low Precip. Humidity
Today
Apr 21

Clouds
61 °F
47 °F
4%
57%
Thursday
Apr 22

Clouds
65 °F
50 °F
4%
53%
Friday
Apr 23

Clouds
71 °F
51 °F
0%
50%
Saturday
Apr 24

Clouds
73 °F
47 °F
0%
49%
Sunday
Apr 25

Clouds
67 °F
47 °F
0%
49%
Monday
Apr 26

Rain
60 °F
47 °F
91%
63%
Tuesday
Apr 27

Clear
74 °F
43 °F
0%
35%
Wednesday
Apr 28

Clear
85 °F
53 °F
0%
17%
Thursday
Apr 29

Clear
89 °F
60 °F
0%
16%
Friday
Apr 30

Clouds
83 °F
57 °F
0%
23%
Saturday
May 1

Clouds
74 °F
52 °F
0%
45%
Sunday
May 2

Clouds
76 °F
52 °F
0%
37%
Monday
May 3

Clear
83 °F
52 °F
0%
22%
Tuesday
May 4

Clear
89 °F
60 °F
0%
15%
Wednesday
May 5

Clouds
88 °F
62 °F
0%
20%
Thursday
May 6

Clouds
85 °F
58 °F
0%
25%

Temperature 8-14 Day Outlook



Precipitation 8-14 Day Outlook




Quick Links
Lake Perris News
Lake Perris Photos
Lake Perris Videos




About Us
Contact Us
Site Map
Search Site
Advertise With Us
   
LakePerris.LakesOnline.com
THE LAKE PERRIS WEBSITE

Copyright 2021, Lakes Online
Privacy    |    Legal